Yeovilton, United Kingdom

2:07 PM BST on June 23, 2018 (GMT +0100)
Yeovil Radar Navy

Weather History for EGDY - October, 2017

Change the Weather History Date:

Monday, October 30, 2017

  Actual Average Record
Temperature  
Mean Temperature 43 °F -  
Max Temperature 54 °F 50 °F 65 °F (2014)
Min Temperature 32 °F 38 °F 28 °F (1997)
Degree Days  
Heating Degree Days 22    
Moisture  
Dew Point 37 °F    
Average Humidity 84    
Maximum Humidity 100    
Minimum Humidity 52    
Precipitation  
Precipitation 0.00 in - - ()
Sea Level Pressure  
Sea Level Pressure 30.45 in    
Wind  
Wind Speed 2 mph ()    
Max Wind Speed 5 mph    
Max Gust Speed -    
Visibility 8.2 miles    
Events Fog    
Averages and records for this station are not official NWS values.
T = Trace of Precipitation, MM = Missing Value Source: Averaged Metar Reports

Daily Weather History Graph

Daily Weather History Graph

Search for Another Location

Airport or City:

Astronomy

Oct. 30, 2017 Rise Set
Actual Time 6:59 AM GMT 4:48 PM GMT
Civil Twilight 6:24 AM GMT 5:22 PM GMT
Nautical Twilight 5:45 AM GMT 6:01 PM GMT
Astronomical Twilight 5:07 AM GMT 6:39 PM GMT
Moon 3:07 PM GMT (10/30) 12:46 AM GMT (10/30)
Length of Visible Light 10h 57m
Length of Day
9h 48m
Waxing Gibbous, 74% of the Moon is Illuminated
Oct 30
Waxing Gibbous
Nov 4
Full
Nov 10
Last Quarter
Nov 18
New
Nov 26
First Quarter

Hourly Weather History & Observations

Time (GMT) Temp. Windchill Dew Point Humidity Pressure Visibility Wind Dir Wind Speed Gust Speed Precip Events Conditions
12:00 AM 41 °F - 38 °F 86% 30.42 in 9 mi WNW 2.3 mph - -  
12:50 AM 37.4 °F - 37.4 °F 100% 30.42 in 6.2 mi West 2.3 mph - N/A   Unknown
1:00 AM 38 °F - 37 °F 93% 30.43 in 9 mi West 2.3 mph - -  
1:50 AM 37.4 °F - 37.4 °F 100% 30.42 in 6.2 mi NW 2.3 mph - N/A   Partly Cloudy
2:50 AM 35.6 °F - 33.8 °F 93% 30.42 in 5.6 mi Calm Calm - N/A   Partly Cloudy
3:50 AM 35.6 °F 31.7 °F 33.8 °F 93% 30.42 in 5.6 mi East 4.6 mph - N/A   Partly Cloudy
4:00 AM 35 °F - 34 °F 93% 30.44 in 6 mi East 4.6 mph - -   Mist
4:50 AM 33.8 °F - 33.8 °F 100% 30.42 in - North 1.2 mph - N/A   Clear
5:00 AM 33 °F - 33 °F 99% 30.45 in 9 mi North 1.2 mph - -  
5:50 AM 33.8 °F 30.8 °F 32.0 °F 93% 30.45 in - West 3.5 mph - N/A   Clear
6:00 AM 34 °F - 33 °F 93% 30.45 in 9 mi West 3.5 mph - -   Clear
6:50 AM 32.0 °F - 30.2 °F 93% 30.45 in 0.4 mi WNW 1.2 mph - N/A Fog Patches of Fog
7:50 AM 32.0 °F - 32.0 °F 100% 30.48 in 0.2 mi West 1.2 mph - N/A Fog Fog
8:00 AM 33 °F - 32 °F 94% 30.50 in 0 mi West 1.2 mph - - Fog Partial Fog
8:50 AM 37.4 °F - 37.4 °F 100% 30.48 in 5.0 mi West 1.2 mph - N/A   Scattered Clouds
9:00 AM 38 °F - 37 °F 96% 30.51 in 5 mi West 1.2 mph - - Fog Light Fog
9:50 AM 42.8 °F - 41.0 °F 93% 30.48 in - West 2.3 mph - N/A   Clear
10:00 AM 42 °F - 40 °F 92% 30.51 in 6 mi West 2.3 mph - -   Clear
10:50 AM 46.4 °F - 39.2 °F 76% 30.48 in - NNE 2.3 mph - N/A   Clear
11:00 AM 46 °F - 40 °F 72% 30.51 in 6 mi NNE 2.3 mph - -   Clear
11:50 AM 50.0 °F - 41.0 °F 71% 30.48 in 6.2 mi NE 1.2 mph - N/A   Partly Cloudy
12:00 PM 49 °F - 41 °F 66% 30.48 in 16 mi NE 1.2 mph - -   Scattered Clouds
12:50 PM 50.0 °F - 39.2 °F 66% 30.45 in 6.2 mi ENE 1.2 mph - N/A   Scattered Clouds
1:00 PM 51 °F - 40 °F 55% 30.47 in 16 mi ENE 1.2 mph - -   Scattered Clouds
1:50 PM 53.6 °F - 41.0 °F 62% 30.45 in 6.2 mi West 1.2 mph - N/A   Scattered Clouds
2:00 PM 53 °F - 40 °F 52% 30.46 in 16 mi West 1.2 mph - -   Scattered Clouds
2:50 PM 51.8 °F - 39.2 °F 62% 30.45 in 6.2 mi SSW 1.2 mph - N/A   Scattered Clouds
3:00 PM 52 °F - 40 °F 53% 30.45 in 16 mi SSW 1.2 mph - -   Scattered Clouds
3:50 PM 51.8 °F - 39.2 °F 62% 30.45 in 6.2 mi West 1.2 mph - N/A   Mostly Cloudy
4:00 PM 51 °F - 39 °F 54% 30.45 in 16 mi West 1.2 mph - -   Scattered Clouds
4:50 PM 48.2 °F - 41.0 °F 76% 30.42 in 6.2 mi West 1.2 mph - N/A   Mostly Cloudy
5:00 PM 47 °F - 41 °F 71% 30.45 in 16 mi West 1.2 mph - -   Scattered Clouds
5:50 PM 42.8 °F - 39.2 °F 87% 30.42 in 6.2 mi East 2.3 mph - N/A   Mostly Cloudy
6:00 PM 44 °F - 39 °F 76% 30.45 in 16 mi East 2.3 mph - -   Scattered Clouds
6:50 PM 42.8 °F - 39.2 °F 87% 30.42 in - SE 2.3 mph - N/A   Clear
7:00 PM 42 °F - 39 °F 86% 30.45 in 6 mi SE 2.3 mph - -   Scattered Clouds
7:50 PM 41.0 °F 39.0 °F 39.2 °F 93% 30.42 in - SSE 3.5 mph - N/A   Clear
8:00 PM 40 °F - 38 °F 91% 30.44 in 9 mi SSE 3.5 mph - -   Scattered Clouds
8:50 PM 39.2 °F - 37.4 °F 93% 30.45 in - ESE 1.2 mph - N/A   Clear
9:00 PM 39 °F - 37 °F 89% 30.46 in 9 mi ESE 1.2 mph - -   Scattered Clouds
9:50 PM 37.4 °F - 37.4 °F 100% 30.45 in - ESE 1.2 mph - N/A   Clear
10:00 PM 38 °F - 36 °F 92% 30.45 in 9 mi ESE 1.2 mph - -   Scattered Clouds
10:50 PM 35.6 °F 32.8 °F 35.6 °F 100% 30.42 in - SSE 3.5 mph - N/A   Clear
11:00 PM 36 °F - 35 °F 97% 30.44 in 9 mi SSE 3.5 mph - -   Scattered Clouds
11:50 PM 37.4 °F - 37.4 °F 100% 30.42 in - SE 1.2 mph - N/A   Clear